Stations météo

Publicité
Rennes, France (7130): Température de l'air & dewpoint: 25.10.2020 22:00:00 - 31.10.2020 22:00:00 (CET)Rennes, France (7130): Température de l'air 5cm: 25.10.2020 22:00:00 - 31.10.2020 22:00:00 (CET)Rennes, France (7130): Température de l'air -20cm & Température de l'air -100cm: 25.10.2020 22:00:00 - 31.10.2020 22:00:00 (CET)Rennes, France (7130): Vitesse du vent & gusts: 25.10.2020 22:00:00 - 31.10.2020 22:00:00 (CET)Rennes, France (7130): Direction du vent: 25.10.2020 22:00:00 - 31.10.2020 22:00:00 (CET)Rennes, France (7130): reduced air pressure: 25.10.2020 22:00:00 - 31.10.2020 22:00:00 (CET)Rennes, France (7130): visibility: 25.10.2020 22:00:00 - 31.10.2020 22:00:00 (CET)Rennes, France (7130): Ensoleillement: 25.10.2020 22:00:00 - 31.10.2020 22:00:00 (CET)Rennes, France (7130): Quantités de précipitations: 25.10.2020 22:00:00 - 31.10.2020 22:00:00 (CET)
Date & Time tt [°C] td [°C] tt 5cm [°C] tt -20cm [°C] tt -100cm [°C] ff [km/h] ff [knt] fx [km/h] fx [knt] dd ppp [hPa] vv [km] sd [min] rr [mm]
31.10.2020 22:00:00 11,9 11,0 11,5 13,6 14,2 11 6 19 10 S 1016,9 14 0 0,0
31.10.2020 21:00:00 12,3 11,2 11,7 13,7 14,2 11 6 21 11 SSW 1017,1 16 0 0,0
31.10.2020 20:00:00 12,6 11,5 12,0 13,7 14,2 8 5 21 11 S 1016,7 17 0 0,0
31.10.2020 19:00:00 12,9 11,8 12,6 13,7 14,2 10 6 21 11 S 1016,9 21 0 0,0
31.10.2020 18:00:00 13,5 11,7 12,7 13,6 14,2 14 7 21 12 SW 1016,7 28 7 0,0
31.10.2020 17:00:00 13,7 12,4 13,5 13,6 14,2 9 5 28 15 SW 1016,2 43 5 0,0
31.10.2020 16:00:00 15,0 13,0 13,9 13,7 14,2 14 7 34 18 SW 1015,8 27 8 0,0
31.10.2020 15:00:00 15,3 13,3 14,7 13,5 14,2 20 11 42 23 WSW 1015,1 34 0 0,6
31.10.2020 14:00:00 15,6 14,6 14,6 13,5 14,2 24 13 48 26 SSW 1014,5 5 0 1,8
31.10.2020 13:00:00 15,3 14,0 14,3 13,4 14,2 26 14 48 26 S 1014,4 7 0 0,6
31.10.2020 12:00:00 15,3 13,5 14,0 13,4 14,2 27 15 50 27 S 1015,5 9 0 0,2
31.10.2020 11:00:00 15,4 12,5 14,7 13,4 14,2 28 15 50 27 S 1015,8 26 16 0,0
31.10.2020 10:00:00 14,3 12,5 12,6 13,4 14,2 26 14 41 22 S 1016,3 13 10 0,0
31.10.2020 09:00:00 12,5 11,9 11,9 13,5 14,2 23 12 41 22 S 1017,1 9 0 0,0
31.10.2020 08:00:00 11,9 11,4 11,0 13,5 14,2 21 12 35 19 S 1017,5 8 0 0,0
31.10.2020 07:00:00 11,2 10,7 9,7 13,5 14,2 19 10 28 15 S 1018,0 9 0 0,0
31.10.2020 06:00:00 10,4 9,9 9,8 13,6 14,2 9 5 18 10 SSE 1018,6 7 0 0,0
31.10.2020 05:00:00 10,6 10,3 9,4 13,6 14,2 10 6 17 9 SE 1019,2 4,0 0 0,0
31.10.2020 04:00:00 10,8 10,2 10,1 13,7 14,2 13 7 19 10 S 1020,0 8 0 0,0
31.10.2020 03:00:00 11,6 10,5 10,8 13,7 14,2 12 6 18 10 SSE 1020,8 11 0 0,0
31.10.2020 02:00:00 12,8 11,2 12,2 13,7 14,2 13 7 22 12 SE 1021,4 15 0 0,0
31.10.2020 01:00:00 12,4 10,5 11,4 13,7 14,2 13 7 18 10 SSE 1022,1 19 0 0,0
31.10.2020 00:00:00 11,9 10,0 10,9 13,7 14,2 9 5 21 11 SSE 1022,6 24 0 0,0
30.10.2020 23:00:00 13,3 10,1 12,6 13,7 14,2 14 8 21 11 SSE 1022,9 27 0 0,0
30.10.2020 22:00:00 14,3 9,9 13,6 13,7 14,2 14 8 25 13 S 1023,1 30 0 0,0
30.10.2020 21:00:00 14,4 10,2 13,9 13,8 14,2 9 5 18 10 S 1023,6 29 0 0,0
30.10.2020 20:00:00 14,7 10,3 14,1 13,7 14,2 11 6 23 12 S 1023,4 28 0 0,0
30.10.2020 19:00:00 14,4 10,8 14,0 13,7 14,2 11 6 18 10 SSE 1023,6 26 0 0,0
30.10.2020 18:00:00 15,0 10,6 14,6 13,7 14,2 11 6 22 12 SSW 1023,7 29 0 0,0
30.10.2020 17:00:00 15,4 10,4 15,2 13,7 14,2 15 8 30 16 SW 1023,4 30 0 0,0
30.10.2020 16:00:00 15,7 10,5 15,8 13,7 14,2 15 8 35 19 SSW 1023,3 34 0 0,0
30.10.2020 15:00:00 16,0 10,7 15,9 13,6 14,2 18 10 36 20 SSW 1023,5 30 0 0,0
30.10.2020 14:00:00 16,0 10,5 15,9 13,6 14,2 20 11 36 19 SSW 1023,6 33 0 0,0
30.10.2020 13:00:00 16,1 11,9 16,4 13,6 14,2 14 8 35 19 SW 1023,7 36 0 0,0
30.10.2020 12:00:00 15,9 12,1 16,1 13,6 14,2 19 10 31 17 SSW 1023,8 32 0 0,0
30.10.2020 11:00:00 15,4 11,6 15,0 13,5 14,2 17 9 36 20 SSW 1023,6 27 0 0,0
30.10.2020 10:00:00 14,6 12,3 14,3 13,5 14,2 14 8 24 13 SSW 1023,7 39 0 0,0
30.10.2020 09:00:00 14,2 12,2 14,0 13,5 14,2 12 7 24 13 SSW 1023,3 35 0 0,0
30.10.2020 08:00:00 14,3 11,6 14,0 13,5 14,2 14 8 28 15 SSW 1022,9 30 0 0,0
30.10.2020 07:00:00 14,5 11,8 14,2 13,5 14,2 13 7 27 15 SSW 1022,7 26 0 0,0
30.10.2020 06:00:00 14,6 12,1 14,3 13,5 14,2 18 10 35 19 SSW 1022,5 25 0 0,0
30.10.2020 05:00:00 14,6 12,3 13,5 13,5 14,2 21 11 36 19 SSW 1022,3 32 0 0,0
30.10.2020 04:00:00 14,2 12,9 13,5 13,5 14,2 21 11 37 20 SSW 1022,4 9 0 0,2
30.10.2020 03:00:00 14,5 12,5 13,4 13,5 14,2 19 11 32 17 SSW 1022,2 30 0 0,0
30.10.2020 02:00:00 14,6 12,6 13,9 13,5 14,2 18 10 32 18 SSW 1022,3 17 0 0,0
30.10.2020 01:00:00 14,7 12,7 14,4 13,4 14,2 18 10 31 17 SSW 1022,1 26 0 0,0
30.10.2020 00:00:00 14,7 12,9 14,1 13,4 14,2 18 10 30 16 SSW 1022,1 23 0 0,0
29.10.2020 23:00:00 14,6 13,0 13,8 13,4 14,2 15 8 34 18 SSW 1022,1 22 0 0,0
29.10.2020 22:00:00 14,5 13,0 13,8 13,4 14,2 16 8 29 16 SSW 1022,0 14 0 0,0
29.10.2020 21:00:00 14,5 12,9 13,9 13,4 14,2 14 8 26 14 SSW 1022,0 23 0 0,0
29.10.2020 20:00:00 14,2 12,9 13,3 13,4 14,3 14 8 24 13 SSW 1021,9 28 0 0,0
29.10.2020 19:00:00 14,1 12,7 13,3 13,3 14,2 16 9 32 18 SW 1021,6 36 0 0,2
29.10.2020 18:00:00 15,3 12,1 15,0 13,3 14,3 19 10 35 19 SW 1020,8 32 0 0,0
29.10.2020 17:00:00 15,6 12,5 14,9 13,2 14,3 19 10 41 22 SW 1020,8 35 2 0,0
29.10.2020 16:00:00 16,0 12,7 15,9 13,2 14,2 24 13 50 27 SW 1020,4 29 0 0,0
29.10.2020 15:00:00 16,5 12,6 16,6 13,1 14,3 22 12 36 19 SW 1020,4 24 1 0,0
29.10.2020 14:00:00 16,3 12,8 14,4 13,0 14,2 20 11 34 18 SW 1020,6 30 0 0,0
29.10.2020 13:00:00 15,8 12,7 14,5 13,0 14,3 15 8 36 20 SW 1021,1 26 0 0,0
29.10.2020 12:00:00 15,4 12,7 15,5 13,0 14,3 18 10 37 20 SSW 1021,0 19 0 0,0
29.10.2020 11:00:00 14,7 12,6 13,7 12,9 14,3 17 9 32 17 SSW 1020,9 12 0 0,0
29.10.2020 10:00:00 13,2 11,9 12,4 12,9 14,3 14 7 23 12 S 1020,9 19 0 0,0
29.10.2020 09:00:00 12,2 11,3 11,7 13,0 14,2 12 7 19 11 S 1020,6 20 0 0,0
29.10.2020 08:00:00 11,8 10,7 11,2 13,0 14,2 13 7 18 10 S 1020,1 21 0 0,0
29.10.2020 07:00:00 11,6 10,5 10,8 13,0 14,3 9 5 23 12 SW 1019,7 23 0 0,0
29.10.2020 06:00:00 11,6 10,0 11,1 13,0 14,3 16 9 24 13 SSW 1019,5 26 0 0,0
29.10.2020 05:00:00 11,5 9,4 10,9 13,1 14,3 10 5 22 12 SSW 1019,0 36 0 0,0
29.10.2020 04:00:00 11,7 8,9 10,9 13,0 14,3 13 7 23 12 SW 1018,5 42 0 0,0
29.10.2020 03:00:00 11,9 9,1 11,2 13,0 14,3 13 7 24 13 SW 1018,1 34 0 0,0
29.10.2020 02:00:00 12,3 9,7 11,1 13,1 14,3 15 8 24 13 SW 1017,8 30 0 0,0
29.10.2020 01:00:00 12,0 10,6 11,1 13,0 14,3 10 5 30 16 WSW 1017,6 21 0 0,4
29.10.2020 00:00:00 12,8 10,5 11,9 13,1 14,3 17 9 31 17 WSW 1016,8 24 0 0,0
28.10.2020 23:00:00 13,0 10,2 12,4 13,1 14,3 18 10 36 20 SW 1016,3 25 0 0,0
28.10.2020 22:00:00 12,9 10,1 12,5 13,1 14,3 21 11 35 19 SW 1015,3 26 0 0,0
28.10.2020 21:00:00 12,9 9,9 12,6 13,1 14,3 18 10 43 23 SW 1014,9 27 0 0,0
28.10.2020 20:00:00 13,1 9,7 12,2 13,1 14,3 17 9 27 15 SW 1014,4 25 0 0,0
28.10.2020 19:00:00 12,7 10,4 12,2 13,1 14,3 13 7 39 21 SSW 1013,8 26 0 0,0
28.10.2020 18:00:00 13,2 10,0 12,2 13,0 14,3 25 13 50 27 SW 1012,7 34 0 0,2
28.10.2020 17:00:00 13,5 11,4 12,0 13,0 14,3 21 11 51 28 SW 1012,1 18 0 0,2
28.10.2020 16:00:00 14,5 10,1 14,6 12,9 14,4 25 13 46 25 SW 1011,9 25 0 0,0
28.10.2020 15:00:00 14,8 10,6 15,1 12,9 14,3 28 15 54 29 SW 1011,4 19 9 0,0
28.10.2020 14:00:00 15,7 10,5 12,9 12,9 14,4 28 15 51 28 SW 1011,3 20 8 0,0
28.10.2020 13:00:00 13,9 11,2 12,4 12,8 14,3 16 9 48 26 SW 1011,7 5 0 0,4
28.10.2020 12:00:00 13,9 10,9 13,7 12,8 14,4 23 12 51 28 SSW 1011,5 16 0 0,0
28.10.2020 11:00:00 13,8 10,8 13,2 12,8 14,4 19 10 35 19 SSW 1011,7 28 0 0,0
28.10.2020 10:00:00 12,4 10,1 11,6 12,8 14,4 15 8 25 13 S - 20 0 0,0
28.10.2020 09:00:00 11,5 9,9 9,9 12,9 14,4 19 11 30 16 S - 19 - -
28.10.2020 08:00:00 10,2 8,8 9,1 12,9 14,4 14 8 22 12 S 1010,4 26 0 0,0
28.10.2020 07:00:00 9,7 8,8 8,8 13,0 14,4 13 7 24 13 S 1010,1 20 0 0,0
28.10.2020 06:00:00 10,3 8,7 9,4 13,0 14,4 15 8 31 17 SSW 1009,9 26 0 0,2
28.10.2020 05:00:00 9,9 8,5 9,2 13,0 14,4 16 8 29 15 SSW 1009,4 23 0 0,0
28.10.2020 04:00:00 9,7 8,5 7,4 13,1 14,4 13 7 21 12 SSW 1009,3 20 0 0,0
28.10.2020 03:00:00 9,6 8,8 8,3 13,1 14,4 10 5 19 11 SSW 1009,1 19 0 0,0
28.10.2020 02:00:00 10,0 9,2 9,1 13,2 14,4 10 6 24 13 SW 1008,9 20 0 0,0
28.10.2020 01:00:00 10,6 9,5 9,9 13,2 14,4 13 7 32 17 SW 1008,6 25 0 0,0
28.10.2020 00:00:00 11,5 9,6 10,9 13,2 14,4 24 13 37 20 WSW 1008,0 33 0 0,0
27.10.2020 23:00:00 12,0 10,2 11,5 13,2 14,4 16 9 30 16 SW 1007,2 37 0 0,0
27.10.2020 22:00:00 12,7 11,4 12,0 13,2 14,4 14 8 24 13 SW 1006,5 28 0 0,0
27.10.2020 21:00:00 12,8 11,4 11,8 13,2 14,4 15 8 27 15 SW 1005,8 34 0 0,0
27.10.2020 20:00:00 13,3 11,5 11,1 13,1 14,5 17 9 29 16 SW 1005,1 29 0 0,0
27.10.2020 19:00:00 12,3 11,5 11,0 13,0 14,4 5 3 45 25 SW 1004,5 49 0 0,4
27.10.2020 18:00:00 13,5 11,2 12,3 13,0 14,5 25 13 41 22 WSW 1003,6 15 2 0,4
27.10.2020 17:00:00 15,8 13,1 14,2 12,9 14,5 18 10 45 25 WSW 1002,5 19 9 0,0
27.10.2020 16:00:00 16,5 13,8 16,4 12,8 14,5 26 14 54 29 SW - 26 10 0,0
27.10.2020 15:00:00 - - 15,3 - - 23 13 42 23 SW - 10 - -
27.10.2020 14:00:00 15,5 14,9 14,7 12,7 14,5 24 13 38 20 SSW 1001,5 15 0 0,2
27.10.2020 13:00:00 14,5 13,9 13,4 12,7 14,5 21 12 53 29 S 1002,5 3,1 0 0,2
27.10.2020 12:00:00 13,3 12,8 12,0 12,6 14,5 29 15 45 25 S 1003,2 3,1 0 0,4
27.10.2020 11:00:00 12,0 11,5 11,1 12,6 14,5 22 12 45 25 S 1003,7 3,8 0 0,4
27.10.2020 10:00:00 11,3 10,7 10,6 12,6 14,5 27 14 42 23 S 1004,6 4,1 0 0,0
27.10.2020 09:00:00 10,8 10,2 9,7 12,7 14,5 24 13 35 19 S 1005,4 6 0 0,4
27.10.2020 08:00:00 10,2 9,4 9,4 12,7 14,5 18 10 30 16 S 1006,1 13 0 0,6
27.10.2020 07:00:00 9,8 9,0 8,8 12,7 14,5 16 8 23 12 S 1006,8 11 0 0,8
27.10.2020 06:00:00 9,4 8,5 8,6 12,7 14,5 11 6 19 10 S 1007,4 9 0 0,4
27.10.2020 05:00:00 8,8 7,6 8,1 12,8 14,5 8 4 18 10 S 1007,5 29 0 0,0
27.10.2020 04:00:00 8,8 7,4 7,9 12,8 14,5 12 7 21 11 SSW 1007,9 26 0 0,0
27.10.2020 03:00:00 8,1 6,9 7,2 12,9 14,5 12 6 23 12 SSW 1008,5 25 0 0,0
27.10.2020 02:00:00 7,8 6,6 7,1 12,9 14,6 14 8 22 12 SW 1008,8 22 0 0,0
27.10.2020 01:00:00 7,9 6,7 7,0 13,0 14,6 13 7 21 11 SW 1009,0 20 0 0,0
27.10.2020 00:00:00 7,8 6,6 6,9 13,0 14,6 13 7 21 12 SW 1009,4 20 0 0,0
26.10.2020 23:00:00 8,3 6,6 7,6 13,0 14,5 14 8 23 12 SW 1009,2 26 0 0,0
26.10.2020 22:00:00 9,0 6,8 8,2 13,1 14,6 15 8 25 13 SW 1008,9 31 0 0,0
26.10.2020 21:00:00 9,0 7,0 8,0 13,1 14,6 13 7 24 13 WSW 1008,5 32 0 0,0
26.10.2020 20:00:00 9,3 6,9 8,2 13,2 14,6 12 6 25 14 SW 1008,2 43 0 0,0
26.10.2020 19:00:00 10,4 7,5 9,1 13,1 14,6 14 8 22 12 WSW 1007,8 43 0 0,0
26.10.2020 18:00:00 11,3 7,4 10,4 13,1 14,6 14 8 34 18 WSW 1007,0 49 31 0,0
26.10.2020 17:00:00 12,6 7,9 11,6 13,0 14,6 22 12 38 20 WSW 1006,5 19 53 0,2
26.10.2020 16:00:00 12,3 8,6 10,0 13,0 14,6 19 10 54 29 WSW 1006,3 43 24 0,2
26.10.2020 15:00:00 15,0 7,8 14,6 12,9 14,6 25 14 48 26 WSW 1005,7 21 53 0,0
26.10.2020 14:00:00 15,0 7,3 13,8 12,9 14,6 22 12 44 24 W 1005,9 10 33 0,0
26.10.2020 13:00:00 13,9 7,9 13,7 12,8 14,6 21 11 43 23 W 1006,2 18 21 0,0
26.10.2020 12:00:00 13,6 8,2 13,7 12,9 14,6 17 9 41 22 W 1006,3 20 49 0,0
26.10.2020 11:00:00 12,4 8,5 11,3 12,9 14,6 17 9 30 16 WSW 1006,3 46 46 0,0
26.10.2020 10:00:00 10,9 8,1 10,5 12,9 14,6 16 9 27 14 SW 1006,0 29 60 0,0
26.10.2020 09:00:00 9,1 7,4 5,8 13,0 14,6 11 6 23 13 SSW 1005,8 19 53 0,0
26.10.2020 08:00:00 6,9 5,8 5,6 13,1 14,6 8 4 19 10 SSW 1005,2 31 0 0,0
26.10.2020 07:00:00 6,5 5,8 4,5 13,2 14,6 11 6 17 9 SSW 1004,5 32 0 0,0
26.10.2020 06:00:00 6,4 5,3 5,1 13,3 14,6 8 4 18 10 SSW 1004,2 34 0 0,0
26.10.2020 05:00:00 6,5 5,4 4,8 13,3 14,6 11 6 17 9 SSW 1003,8 36 0 0,0
26.10.2020 04:00:00 6,2 5,2 4,7 13,4 14,6 10 5 18 10 SSW 1003,6 35 0 0,0
26.10.2020 03:00:00 6,3 5,3 4,7 13,5 14,6 11 6 16 9 SSW 1003,7 37 0 0,0
26.10.2020 02:00:00 6,0 5,0 4,8 13,5 14,6 11 6 20 11 S 1003,6 36 0 0,0
26.10.2020 01:00:00 7,3 6,1 5,1 13,6 14,6 14 8 23 12 SSW 1003,6 35 0 0,0
26.10.2020 00:00:00 7,1 6,0 5,7 13,7 14,6 10 6 21 11 SSW 1003,5 39 0 0,0
25.10.2020 23:00:00 8,6 6,4 7,8 13,7 14,6 13 7 25 13 SW 1003,4 41 0 0,0
25.10.2020 22:00:00 8,7 7,3 7,7 13,8 14,6 13 7 22 12 SW 1003,3 33 0 0,0

tt = Température de l'air
td = dewpoint
tt 5cm = Température de l'air 5cm
tt -20cm = Température de l'air -20cm
tt -100cm = Température de l'air -100cm
ff = Vitesse du vent
fx = gusts
dd = Direction du vent
ppp = reduced air pressure
vv = visibility
sd = Ensoleillement
rr = Quantités de précipitations

stations d'obs. à proximité